Weather History for KBVE - October, 2011

Change the Weather History Date:

Monday, October 17, 2011

  Actual Average Record
Temperature  
Mean Temperature 57 °F -  
Max Temperature 84 °F - - ()
Min Temperature 32 °F - - ()
Degree Days  
Heating Degree Days 8    
Growing Degree Days 7 (Base 50)    
Moisture  
Dew Point 67 °F    
Average Humidity 85    
Maximum Humidity 100    
Minimum Humidity 63    
Precipitation  
Precipitation 0.00 in - - ()
Sea Level Pressure  
Sea Level Pressure 29.93 in    
Wind  
Wind Speed 3 mph (East)    
Max Wind Speed 12 mph    
Max Gust Speed -    
Visibility 6 miles    
Events Fog    
T = Trace of Precipitation, MM = Missing Value Source: NWS Daily Summary

Daily Weather History Graph

Daily Weather History Graph

Search for Another Location

Airport or City:

Trip Planner

Search our weather history database for the weather conditions in past years. The results will help you decide how hot, cold, wet, or windy it might be!

Date:

Astronomy

Oct. 17, 2011 Rise Set
Actual Time 7:00 AM CDT 6:25 PM CDT
Civil Twilight 6:36 AM CDT 6:49 PM CDT
Nautical Twilight 6:08 AM CDT 7:17 PM CDT
Astronomical Twilight 5:40 AM CDT 7:44 PM CDT
Moon 10:24 PM CDT (10/17) 11:47 AM CDT (10/17)
Length of Visible Light 12h 13m
Length of Day
11h 25m
Waning Gibbous, 74% of the Moon is Illuminated
Oct 17
Waning Gibbous
Oct 19
Last Quarter
Oct 26
New
Nov 2
First Quarter
Nov 10
Full

Hourly Weather History & Observations

Time (CDT) Temp. Heat Index Dew Point Humidity Pressure Visibility Wind Dir Wind Speed Gust Speed Precip Events Conditions
12:51 AM 70.0 °F - 66.9 °F 90% 30.01 in 9.0 mi East 3.5 mph - N/A   Clear
1:51 AM 70.0 °F - 66.9 °F 90% 30.00 in 8.0 mi ESE 3.5 mph - N/A   Clear
2:48 AM 66.2 °F - 64.4 °F 94% 29.98 in 1.5 mi Calm Calm - N/A   Clear
2:51 AM 66.9 °F - 64.9 °F 93% 29.98 in 1.0 mi Calm Calm - N/A   Clear
3:15 AM 66.2 °F - 64.4 °F 94% 29.98 in 3.0 mi Calm Calm - N/A   Clear
3:34 AM 66.2 °F - 64.4 °F 94% 29.97 in 1.8 mi Calm Calm - N/A   Clear
3:51 AM 68.0 °F - 66.0 °F 93% 29.97 in 3.0 mi Calm Calm - N/A   Clear
4:12 AM 66.2 °F - 64.4 °F 94% 29.97 in 2.5 mi Calm Calm - N/A   Clear
4:20 AM 66.2 °F - 64.4 °F 94% 29.97 in 4.0 mi Calm Calm - N/A   Clear
4:29 AM 66.2 °F - 64.4 °F 94% 29.97 in 2.0 mi Calm Calm - N/A   Clear
4:47 AM 66.2 °F - 66.2 °F 100% 29.97 in 0.8 mi Calm Calm - N/A   Clear
4:51 AM 66.9 °F - 64.9 °F 93% 29.97 in 0.5 mi Calm Calm - N/A Fog Fog
5:04 AM 68.0 °F - 66.2 °F 94% 29.97 in 2.0 mi Calm Calm - N/A   Clear
5:29 AM 69.8 °F - 66.2 °F 88% 29.97 in 3.0 mi NNE 3.5 mph - N/A   Clear
5:51 AM 70.0 °F - 66.9 °F 90% 29.97 in 5.0 mi Calm Calm - N/A   Clear
6:15 AM 69.8 °F - 66.2 °F 88% 29.96 in 0.8 mi Calm Calm - N/A   Clear
6:26 AM 68.0 °F - 66.2 °F 94% 29.96 in 2.0 mi Calm Calm - N/A   Clear
6:34 AM 68.0 °F - 66.2 °F 94% 29.96 in 1.8 mi Calm Calm - N/A   Clear
6:42 AM 69.8 °F - 66.2 °F 88% 29.96 in 2.5 mi Calm Calm - N/A   Clear
6:51 AM 68.0 °F - 66.9 °F 96% 29.96 in 1.2 mi Calm Calm - N/A   Clear
7:03 AM 68.0 °F - 66.2 °F 94% 29.96 in 0.2 mi Calm Calm - N/A Fog Fog
7:21 AM 68.0 °F - 66.2 °F 94% 29.96 in 1.2 mi NNE 3.5 mph - N/A   Clear
7:28 AM 68.0 °F - 66.2 °F 94% 29.97 in 7.0 mi Calm Calm - N/A   Clear
7:39 AM 69.8 °F - 68.0 °F 94% 29.97 in 5.0 mi Calm Calm - N/A   Partly Cloudy
7:51 AM 72.0 °F - 70.0 °F 93% 29.97 in 8.0 mi Calm Calm - N/A   Clear
8:02 AM 73.4 °F - 69.8 °F 88% 29.97 in 7.0 mi Calm Calm - N/A   Partly Cloudy
8:51 AM 77.0 °F - 71.1 °F 82% 29.98 in 10.0 mi ENE 3.5 mph - N/A   Clear
9:51 AM 80.1 °F 83.6 °F 71.1 °F 74% 29.98 in 10.0 mi NE 4.6 mph - N/A   Clear
10:51 AM 82.0 °F 85.9 °F 70.0 °F 67% 29.97 in 10.0 mi East 8.1 mph - N/A   Clear
11:51 AM 82.9 °F 87.0 °F 70.0 °F 65% 29.95 in 10.0 mi East 10.4 mph - N/A   Clear
12:51 PM 82.9 °F 86.5 °F 69.1 °F 63% 29.92 in 10.0 mi East 11.5 mph - N/A   Clear
1:00 PM 32.0 °F - 32.0 °F 100% - - North - - N/A   Unknown
1:51 PM 82.0 °F 85.9 °F 70.0 °F 67% 29.89 in 10.0 mi East 10.4 mph - N/A   Clear
2:51 PM 82.9 °F 86.5 °F 69.1 °F 63% 29.87 in 10.0 mi East 11.5 mph - N/A   Scattered Clouds
3:51 PM 82.0 °F 85.5 °F 69.1 °F 65% 29.86 in 10.0 mi ENE 11.5 mph - N/A   Scattered Clouds
4:51 PM 81.0 °F 84.4 °F 70.0 °F 69% 29.85 in 10.0 mi East 9.2 mph - N/A   Scattered Clouds
5:51 PM 79.0 °F - 68.0 °F 69% 29.85 in 10.0 mi East 8.1 mph - N/A   Clear
6:25 PM 78.8 °F - 69.8 °F 74% 29.85 in 10.0 mi East 5.8 mph - N/A   Mostly Cloudy
6:48 PM 77.0 °F - 69.8 °F 78% 29.85 in 10.0 mi East 6.9 mph - N/A   Scattered Clouds
6:51 PM 77.0 °F - 69.1 °F 76% 29.85 in 10.0 mi East 5.8 mph - N/A   Scattered Clouds
7:51 PM 75.9 °F - 68.0 °F 76% 29.86 in 10.0 mi East 8.1 mph - N/A   Clear
8:51 PM 75.0 °F - 69.1 °F 82% 29.84 in 10.0 mi East 5.8 mph - N/A   Clear
9:51 PM 75.0 °F - 69.1 °F 82% 29.83 in 10.0 mi East 4.6 mph - N/A   Clear
10:51 PM 75.0 °F - 70.0 °F 84% 29.81 in 10.0 mi East 5.8 mph - N/A   Clear
11:51 PM 75.0 °F - 71.1 °F 87% 29.80 in 10.0 mi East 4.6 mph - N/A   Clear